Wetterdaten: Mittwoch, 14.01.2004
Datum Zeit Temp. A Sch. Temp. A Son. Feuchte A. Luftdruck Regen Wind Richtung Richtung Sonnenschein Helligkeit Taupunkt Windchill
14.01.2004 00:00 5,5 C 5,3 C 67 % 991 hPa 0,0 l/m 9,1 m/s (2 Bft) W45 260 0,00 min 0 lux -0,1 C -6,3 C
14.01.2004 00:05 5,5 C 5,4 C 66 % 991 hPa 0,0 l/m 10,4 m/s (2 Bft) W-SW45 255 0,00 min 0 lux -0,3 C -7,3 C
14.01.2004 00:10 5,7 C 5,4 C 66 % 991 hPa 0,0 l/m 11,3 m/s (2 Bft) W-SW45 255 0,00 min 0 lux -0,1 C -7,6 C
14.01.2004 00:15 5,5 C 5,4 C 66 % 991 hPa 0,0 l/m 13,0 m/s (3 Bft) W-SW45 255 0,00 min 0 lux -0,3 C -8,8 C
14.01.2004 00:20 5,6 C 5,4 C 65 % 991 hPa 0,0 l/m 13,1 m/s (3 Bft) W-SW45 255 0,00 min 0 lux -0,4 C -8,7 C
14.01.2004 00:25 5,6 C 5,5 C 65 % 991 hPa 0,0 l/m 10,0 m/s (2 Bft) W-SW45 255 0,00 min 0 lux -0,4 C -6,9 C
14.01.2004 00:30 5,6 C 5,5 C 66 % 991 hPa 0,0 l/m 11,8 m/s (2 Bft) W-SW45 250 0,00 min 0 lux -0,2 C -8,1 C
14.01.2004 00:35 5,6 C 5,5 C 66 % 991 hPa 0,0 l/m 10,3 m/s (2 Bft) W-SW45 250 0,00 min 0 lux -0,2 C -7,1 C
14.01.2004 00:40 5,5 C 5,5 C 66 % 991 hPa 0,0 l/m 8,3 m/s (2 Bft) W45 265 0,00 min 0 lux -0,3 C -5,7 C
14.01.2004 00:45 5,6 C 5,5 C 65 % 991 hPa 0,0 l/m 12,6 m/s (3 Bft) W-SW45 255 0,00 min 0 lux -0,4 C -8,5 C
14.01.2004 00:50 5,6 C 5,6 C 65 % 991 hPa 0,0 l/m 10,6 m/s (2 Bft) W-SW45 250 0,00 min 0 lux -0,4 C -7,3 C
14.01.2004 00:55 5,6 C 5,5 C 65 % 992 hPa 0,0 l/m 10,1 m/s (2 Bft) W45 260 0,00 min 0 lux -0,4 C -7,0 C
14.01.2004 01:00 5,6 C 5,5 C 65 % 992 hPa 0,0 l/m 12,5 m/s (3 Bft) W67.5 260 0,00 min 0 lux -0,4 C -8,4 C
14.01.2004 01:05 5,5 C 5,5 C 65 % 992 hPa 0,0 l/m 8,3 m/s (2 Bft) W-SW22.5 250 0,00 min 0 lux -0,5 C -5,6 C
14.01.2004 01:10 5,5 C 5,5 C 65 % 992 hPa 0,0 l/m 12,4 m/s (3 Bft) W-SW45 255 0,00 min 0 lux -0,5 C -8,5 C
14.01.2004 01:15 5,6 C 5,5 C 64 % 992 hPa 0,0 l/m 9,2 m/s (2 Bft) W45 260 0,00 min 0 lux -0,7 C -6,2 C
14.01.2004 01:20 5,7 C 5,5 C 64 % 992 hPa 0,0 l/m 11,8 m/s (2 Bft) W-SW67.5 255 0,00 min 0 lux -0,6 C -7,9 C
14.01.2004 01:25 5,6 C 5,5 C 64 % 992 hPa 0,0 l/m 11,3 m/s (2 Bft) W-SW45 250 0,00 min 0 lux -0,7 C -7,8 C
14.01.2004 01:30 5,7 C 5,5 C 64 % 992 hPa 0,0 l/m 13,0 m/s (3 Bft) W-SW45 255 0,00 min 0 lux -0,6 C -8,5 C
14.01.2004 01:35 5,7 C 5,6 C 63 % 992 hPa 0,0 l/m 11,5 m/s (2 Bft) W-SW67.5 255 0,00 min 0 lux -0,8 C -7,7 C
14.01.2004 01:40 5,7 C 5,6 C 63 % 992 hPa 0,0 l/m 10,2 m/s (2 Bft) W45 260 0,00 min 0 lux -0,8 C -6,9 C
14.01.2004 01:45 5,6 C 5,6 C 64 % 992 hPa 0,0 l/m 10,8 m/s (2 Bft) W-SW45 255 0,00 min 0 lux -0,7 C -7,4 C
14.01.2004 01:50 5,5 C 5,6 C 64 % 992 hPa 0,0 l/m 10,0 m/s (2 Bft) W-SW22.5 250 0,00 min 0 lux -0,8 C -7,0 C
14.01.2004 01:55 5,5 C 5,5 C 64 % 992 hPa 0,0 l/m 10,1 m/s (2 Bft) W-SW45 245 0,00 min 0 lux -0,8 C -7,1 C
14.01.2004 02:00 5,5 C 5,5 C 64 % 992 hPa 0,0 l/m 10,4 m/s (2 Bft) W-SW22.5 255 0,00 min 0 lux -0,8 C -7,3 C
14.01.2004 02:05 5,4 C 5,5 C 65 % 993 hPa 0,0 l/m 10,9 m/s (2 Bft) W45 260 0,00 min 0 lux -0,6 C -7,8 C
14.01.2004 02:10 5,2 C 5,5 C 67 % 993 hPa 0,0 l/m 10,8 m/s (2 Bft) W45 260 0,00 min 0 lux -0,4 C -8,0 C
14.01.2004 02:15 5,1 C 5,4 C 69 % 993 hPa 0,0 l/m 9,6 m/s (2 Bft) W45 265 0,00 min 0 lux -0,1 C -7,3 C
14.01.2004 02:20 5,0 C 5,3 C 69 % 993 hPa 0,0 l/m 7,7 m/s (2 Bft) W-SW45 245 0,00 min 0 lux -0,2 C -5,8 C
14.01.2004 02:25 5,0 C 5,2 C 69 % 993 hPa 0,0 l/m 11,8 m/s (2 Bft) W-SW45 240 0,00 min 0 lux -0,2 C -8,9 C
14.01.2004 02:30 5,1 C 5,2 C 69 % 993 hPa 0,0 l/m 7,6 m/s (2 Bft) W-SW45 250 0,00 min 0 lux -0,1 C -5,5 C
14.01.2004 02:35 5,2 C 5,1 C 68 % 993 hPa 0,0 l/m 7,4 m/s (2 Bft) W-SW45 250 0,00 min 0 lux -0,2 C -5,2 C
14.01.2004 02:40 5,1 C 5,1 C 67 % 993 hPa 0,0 l/m 9,6 m/s (2 Bft) W-SW45 255 0,00 min 0 lux -0,5 C -7,3 C
14.01.2004 02:45 5,1 C 5,1 C 66 % 993 hPa 0,0 l/m 9,6 m/s (2 Bft) W-SW45 255 0,00 min 0 lux -0,7 C -7,3 C
14.01.2004 02:50 5,2 C 5,1 C 65 % 993 hPa 0,0 l/m 7,1 m/s (2 Bft) W-SW22.5 255 0,00 min 0 lux -0,8 C -4,8 C
14.01.2004 02:55 5,2 C 5,1 C 64 % 993 hPa 0,0 l/m 12,4 m/s (3 Bft) W-SW22.5 255 0,00 min 0 lux -1,0 C -9,0 C
14.01.2004 03:00 5,1 C 5,1 C 65 % 993 hPa 0,0 l/m 8,3 m/s (2 Bft) W45 260 0,00 min 0 lux -0,9 C -6,2 C
14.01.2004 03:05 5,2 C 5,0 C 64 % 994 hPa 0,0 l/m 8,3 m/s (2 Bft) W45 260 0,00 min 0 lux -1,0 C -6,1 C
14.01.2004 03:10 5,2 C 5,0 C 64 % 994 hPa 0,0 l/m 10,8 m/s (2 Bft) W45 260 0,00 min 0 lux -1,0 C -8,0 C
14.01.2004 03:15 5,1 C 5,0 C 65 % 994 hPa 0,0 l/m 10,2 m/s (2 Bft) W45 260 0,00 min 0 lux -0,9 C -7,8 C
14.01.2004 03:20 5,3 C 5,1 C 65 % 994 hPa 0,0 l/m 10,5 m/s (2 Bft) W-SW45 255 0,00 min 0 lux -0,7 C -7,7 C
14.01.2004 03:25 5,2 C 5,1 C 65 % 994 hPa 0,0 l/m 9,9 m/s (2 Bft) W45 265 0,00 min 0 lux -0,8 C -7,4 C
14.01.2004 03:30 5,1 C 5,1 C 65 % 994 hPa 0,0 l/m 10,2 m/s (2 Bft) W-SW22.5 250 0,00 min 0 lux -0,9 C -7,7 C
14.01.2004 03:35 5,1 C 5,1 C 65 % 994 hPa 0,0 l/m 8,5 m/s (2 Bft) W-SW45 240 0,00 min 0 lux -0,9 C -6,4 C
14.01.2004 03:40 5,1 C 5,1 C 65 % 994 hPa 0,0 l/m 9,0 m/s (2 Bft) W-SW45 245 0,00 min 0 lux -0,9 C -6,8 C
14.01.2004 03:45 5,0 C 5,1 C 65 % 994 hPa 0,0 l/m 7,4 m/s (2 Bft) W-SW45 250 0,00 min 0 lux -1,0 C -5,5 C
14.01.2004 03:50 5,0 C 5,0 C 65 % 994 hPa 0,0 l/m 9,2 m/s (2 Bft) W-SW45 250 0,00 min 0 lux -1,0 C -7,1 C
14.01.2004 03:55 5,0 C 5,0 C 65 % 994 hPa 0,0 l/m 9,1 m/s (2 Bft) W-SW45 250 0,00 min 0 lux -1,0 C -7,1 C
14.01.2004 04:00 4,9 C 5,0 C 66 % 994 hPa 0,0 l/m 8,0 m/s (2 Bft) W-SW67.5 255 0,00 min 0 lux -0,9 C -6,2 C
14.01.2004 04:05 4,8 C 5,0 C 67 % 994 hPa 0,0 l/m 11,5 m/s (2 Bft) W-SW22.5 255 0,00 min 0 lux -0,8 C -9,1 C
14.01.2004 04:10 4,8 C 4,9 C 67 % 994 hPa 0,0 l/m 7,7 m/s (2 Bft) W-SW45 255 0,00 min 0 lux -0,8 C -6,0 C
14.01.2004 04:15 4,8 C 4,9 C 67 % 995 hPa 0,0 l/m 11,2 m/s (2 Bft) W-SW22.5 250 0,00 min 0 lux -0,8 C -8,9 C
14.01.2004 04:20 4,9 C 4,9 C 67 % 995 hPa 0,0 l/m 7,9 m/s (2 Bft) W-SW45 255 0,00 min 0 lux -0,7 C -6,1 C
14.01.2004 04:25 4,8 C 4,9 C 67 % 995 hPa 0,0 l/m 8,6 m/s (2 Bft) W22.5 260 0,00 min 0 lux -0,8 C -6,9 C
14.01.2004 04:30 4,8 C 4,9 C 68 % 995 hPa 0,0 l/m 7,5 m/s (2 Bft) W-SW45 250 0,00 min 0 lux -0,6 C -5,8 C
14.01.2004 04:35 5,0 C 4,9 C 66 % 995 hPa 0,0 l/m 8,7 m/s (2 Bft) W-SW45 255 0,00 min 0 lux -0,8 C -6,7 C
14.01.2004 04:40 5,1 C 5,0 C 65 % 995 hPa 0,0 l/m 8,3 m/s (2 Bft) W-SW45 255 0,00 min 0 lux -0,9 C -6,2 C
14.01.2004 04:45 5,0 C 5,0 C 66 % 995 hPa 0,0 l/m 13,1 m/s (3 Bft) W-SW45 240 0,00 min 0 lux -0,8 C -9,6 C
14.01.2004 04:50 5,1 C 5,1 C 65 % 995 hPa 0,0 l/m 12,2 m/s (2 Bft) W-SW45 255 0,00 min 0 lux -0,9 C -9,0 C
14.01.2004 04:55 5,2 C 5,1 C 64 % 995 hPa 0,0 l/m 12,6 m/s (3 Bft) W67.5 260 0,00 min 0 lux -1,0 C -9,1 C
14.01.2004 05:00 5,2 C 5,1 C 64 % 995 hPa 0,0 l/m 12,4 m/s (3 Bft) W22.5 260 0,00 min 0 lux -1,0 C -9,0 C
14.01.2004 05:05 5,2 C 5,1 C 63 % 995 hPa 0,0 l/m 9,4 m/s (2 Bft) W22.5 260 0,00 min 0 lux -1,3 C -7,0 C
14.01.2004 05:10 5,2 C 5,2 C 62 % 995 hPa 0,0 l/m 12,9 m/s (3 Bft) W-SW45 245 0,00 min 0 lux -1,5 C -9,2 C
14.01.2004 05:15 5,2 C 5,2 C 63 % 995 hPa 0,0 l/m 8,4 m/s (2 Bft) W-SW22.5 255 0,00 min 0 lux -1,3 C -6,1 C
14.01.2004 05:20 5,0 C 5,1 C 63 % 995 hPa 0,0 l/m 10,6 m/s (2 Bft) W-SW22.5 245 0,00 min 0 lux -1,4 C -8,2 C
14.01.2004 05:25 5,1 C 5,1 C 62 % 995 hPa 0,0 l/m 11,6 m/s (2 Bft) W45 260 0,00 min 0 lux -1,6 C -8,7 C
14.01.2004 05:30 5,1 C 5,1 C 62 % 995 hPa 0,0 l/m 10,2 m/s (2 Bft) W45 265 0,00 min 0 lux -1,6 C -7,7 C
14.01.2004 05:35 5,1 C 5,1 C 62 % 995 hPa 0,0 l/m 9,8 m/s (2 Bft) W-SW22.5 255 0,00 min 0 lux -1,6 C -7,5 C
14.01.2004 05:40 5,2 C 5,1 C 61 % 995 hPa 0,0 l/m 11,9 m/s (2 Bft) W45 260 0,00 min 0 lux -1,7 C -8,7 C
14.01.2004 05:45 5,2 C 5,1 C 61 % 996 hPa 0,0 l/m 9,1 m/s (2 Bft) W-SW45 255 0,00 min 0 lux -1,7 C -6,8 C
14.01.2004 05:50 5,1 C 5,1 C 62 % 996 hPa 0,0 l/m 11,4 m/s (2 Bft) W-SW45 255 0,00 min 0 lux -1,6 C -8,6 C
14.01.2004 05:55 5,1 C 5,1 C 60 % 996 hPa 0,0 l/m 16,1 m/s (3 Bft) W-SW45 255 0,00 min 0 lux -2,0 C -10,6 C
14.01.2004 06:00 5,0 C 5,1 C 61 % 996 hPa 0,0 l/m 11,4 m/s (2 Bft) W-SW67.5 250 0,00 min 0 lux -1,9 C -8,7 C
14.01.2004 06:05 5,0 C 5,1 C 60 % 996 hPa 0,0 l/m 10,5 m/s (2 Bft) W-SW45 250 0,00 min 0 lux -2,1 C -8,1 C
14.01.2004 06:10 4,9 C 5,0 C 61 % 996 hPa 0,0 l/m 10,3 m/s (2 Bft) W45 265 0,00 min 0 lux -2,0 C -8,1 C
14.01.2004 06:15 4,9 C 5,0 C 61 % 996 hPa 0,0 l/m 9,8 m/s (2 Bft) W-SW45 255 0,00 min 0 lux -2,0 C -7,7 C
14.01.2004 06:20 4,9 C 5,0 C 60 % 996 hPa 0,0 l/m 10,9 m/s (2 Bft) W-SW67.5 255 0,00 min 0 lux -2,2 C -8,5 C
14.01.2004 06:25 4,8 C 4,9 C 60 % 996 hPa 0,0 l/m 10,2 m/s (2 Bft) W-SW45 250 0,00 min 0 lux -2,3 C -8,2 C
14.01.2004 06:30 4,7 C 4,8 C 60 % 997 hPa 0,0 l/m 11,4 m/s (2 Bft) W45 260 0,00 min 0 lux -2,4 C -9,2 C
14.01.2004 06:35 4,6 C 4,8 C 60 % 997 hPa 0,0 l/m 8,8 m/s (2 Bft) W-SW45 250 0,00 min 0 lux -2,5 C -7,4 C
14.01.2004 06:40 4,8 C 4,8 C 59 % 997 hPa 0,0 l/m 8,7 m/s (2 Bft) W-SW45 245 0,00 min 0 lux -2,5 C -7,0 C
14.01.2004 06:45 4,7 C 4,7 C 60 % 997 hPa 0,0 l/m 11,6 m/s (2 Bft) W67.5 260 0,00 min 0 lux -2,4 C -9,3 C
14.01.2004 06:50 4,5 C 4,7 C 60 % 997 hPa 0,0 l/m 9,7 m/s (2 Bft) W-SW22.5 255 0,00 min 0 lux -2,6 C -8,3 C
14.01.2004 06:55 4,6 C 4,6 C 60 % 997 hPa 0,0 l/m 11,7 m/s (2 Bft) W45 260 0,00 min 0 lux -2,5 C -9,5 C
14.01.2004 07:00 4,5 C 4,6 C 60 % 997 hPa 0,0 l/m 8,8 m/s (2 Bft) W45 260 0,00 min 0 lux -2,6 C -7,5 C
14.01.2004 07:05 4,3 C 4,6 C 62 % 997 hPa 0,0 l/m 11,2 m/s (2 Bft) W45 260 0,00 min 0 lux -2,3 C -9,6 C
14.01.2004 07:10 4,3 C 4,6 C 63 % 997 hPa 0,0 l/m 8,7 m/s (2 Bft) W-SW22.5 255 0,00 min 0 lux -2,1 C -7,7 C
14.01.2004 07:15 4,3 C 4,5 C 64 % 997 hPa 0,0 l/m 9,2 m/s (2 Bft) W-SW45 250 0,00 min 0 lux -1,9 C -8,2 C
14.01.2004 07:20 4,3 C 4,5 C 64 % 998 hPa 0,0 l/m 13,1 m/s (3 Bft) W22.5 265 0,00 min 0 lux -1,9 C -10,7 C
14.01.2004 07:25 4,3 C 4,5 C 64 % 998 hPa 0,4 l/m 11,8 m/s (2 Bft) W67.5 260 0,00 min 0 lux -1,9 C -10,0 C
14.01.2004 07:30 4,3 C 4,5 C 64 % 998 hPa 0,0 l/m 10,9 m/s (2 Bft) W-SW22.5 255 0,00 min 0 lux -1,9 C -9,4 C
14.01.2004 07:35 4,3 C 4,4 C 63 % 998 hPa 0,0 l/m 9,2 m/s (2 Bft) W-SW22.5 255 0,00 min 0 lux -2,1 C -8,1 C
14.01.2004 07:40 4,4 C 4,4 C 63 % 998 hPa 0,0 l/m 7,7 m/s (2 Bft) W-SW22.5 255 0,00 min 0 lux -2,0 C -6,6 C
14.01.2004 07:45 4,5 C 4,4 C 61 % 998 hPa 0,0 l/m 11,9 m/s (2 Bft) W-SW45 250 0,00 min 0 lux -2,4 C -9,7 C
14.01.2004 07:50 4,3 C 4,4 C 61 % 998 hPa 0,0 l/m 10,0 m/s (2 Bft) W-SW45 255 0,00 min 0 lux -2,5 C -8,8 C
14.01.2004 07:55 4,4 C 4,3 C 60 % 998 hPa 0,0 l/m 12,5 m/s (3 Bft) W22.5 260 0,00 min 0 lux -2,7 C -10,2 C
14.01.2004 08:00 4,2 C 4,3 C 61 % 998 hPa 0,0 l/m 8,9 m/s (2 Bft) W-SW45 255 0,00 min 0 lux -2,6 C -8,1 C
14.01.2004 08:05 4,3 C 4,3 C 60 % 998 hPa 0,0 l/m 9,7 m/s (2 Bft) W22.5 260 0,00 min 68 lux -2,8 C -8,5 C
14.01.2004 08:10 4,3 C 4,3 C 59 % 998 hPa 0,0 l/m 10,6 m/s (2 Bft) W45 260 0,00 min 107 lux -3,0 C -9,2 C
14.01.2004 08:15 4,4 C 4,4 C 59 % 999 hPa 0,0 l/m 10,4 m/s (2 Bft) W-SW45 255 0,00 min 85 lux -2,9 C -8,9 C
14.01.2004 08:20 4,3 C 4,4 C 60 % 999 hPa 0,0 l/m 11,1 m/s (2 Bft) W22.5 265 0,00 min 90 lux -2,8 C -9,6 C
14.01.2004 08:25 4,3 C 4,4 C 60 % 999 hPa 0,0 l/m 7,8 m/s (2 Bft) W-SW22.5 245 0,00 min 187 lux -2,8 C -6,8 C
14.01.2004 08:30 4,3 C 4,4 C 59 % 999 hPa 0,0 l/m 10,4 m/s (2 Bft) W-SW45 250 0,00 min 283 lux -3,0 C -9,1 C
14.01.2004 08:35 4,2 C 4,4 C 60 % 999 hPa 0,0 l/m 8,5 m/s (2 Bft) W-SW45 250 0,00 min 398 lux -2,9 C -7,7 C
14.01.2004 08:40 4,3 C 4,4 C 59 % 999 hPa 0,0 l/m 11,1 m/s (2 Bft) W-SW22.5 255 0,00 min 521 lux -3,0 C -9,6 C
14.01.2004 08:45 4,2 C 4,4 C 60 % 999 hPa 0,0 l/m 9,0 m/s (2 Bft) W-SW22.5 245 0,00 min 690 lux -2,9 C -8,1 C
14.01.2004 08:50 4,2 C 4,4 C 61 % 999 hPa 0,0 l/m 11,0 m/s (2 Bft) W45 260 0,00 min 697 lux -2,6 C -9,6 C
14.01.2004 08:55 4,1 C 4,4 C 62 % 999 hPa 0,0 l/m 10,2 m/s (2 Bft) W-SW22.5 245 0,00 min 1,11 klux -2,5 C -9,2 C
14.01.2004 09:00 4,2 C 4,3 C 61 % 999 hPa 0,0 l/m 10,6 m/s (2 Bft) W45 260 0,00 min 3,04 klux -2,6 C -9,4 C
14.01.2004 09:05 4,2 C 4,3 C 61 % 999 hPa 0,0 l/m 9,4 m/s (2 Bft) W-SW45 255 0,00 min 4,43 klux -2,6 C -8,4 C
14.01.2004 09:10 4,4 C 4,4 C 59 % 999 hPa 0,0 l/m 10,0 m/s (2 Bft) W-SW22.5 250 0,00 min 4,43 klux -2,9 C -8,6 C
14.01.2004 09:15 4,5 C 4,5 C 58 % 999 hPa 0,0 l/m 9,7 m/s (2 Bft) W-SW45 250 5,00 min 10,1 klux -3,0 C -8,3 C
14.01.2004 09:20 4,5 C 4,5 C 58 % 999 hPa 0,0 l/m 10,2 m/s (2 Bft) W-SW22.5 255 0,00 min 7,77 klux -3,0 C -8,6 C
14.01.2004 09:25 4,5 C 4,6 C 57 % 999 hPa 0,0 l/m 9,9 m/s (2 Bft) W-SW22.5 250 5,00 min 12,6 klux -3,3 C -8,4 C
14.01.2004 09:30 4,5 C 4,6 C 58 % 999 hPa 0,0 l/m 7,3 m/s (2 Bft) W-SW45 245 0,00 min 8,63 klux -3,0 C -6,1 C
14.01.2004 09:35 4,5 C 4,7 C 58 % 999 hPa 0,0 l/m 7,3 m/s (2 Bft) W-SW22.5 250 0,00 min 7,24 klux -3,0 C -6,0 C
14.01.2004 09:40 4,5 C 4,6 C 58 % 1000 hPa 0,0 l/m 11,5 m/s (2 Bft) W-SW45 250 0,00 min 6,35 klux -3,0 C -9,5 C
14.01.2004 09:45 4,5 C 4,7 C 58 % 1000 hPa 0,0 l/m 9,4 m/s (2 Bft) W-SW45 255 0,00 min 7,37 klux -3,0 C -8,0 C
14.01.2004 09:50 4,5 C 4,7 C 58 % 1000 hPa 0,0 l/m 7,9 m/s (2 Bft) W-SW45 255 0,00 min 6,08 klux -3,0 C -6,7 C
14.01.2004 09:55 4,5 C 4,7 C 58 % 1000 hPa 0,0 l/m 7,6 m/s (2 Bft) W-SW45 255 0,00 min 7,19 klux -3,0 C -6,4 C
14.01.2004 10:00 4,5 C 4,7 C 59 % 1000 hPa 0,0 l/m 7,2 m/s (2 Bft) W-SW22.5 255 0,00 min 7,19 klux -2,8 C -5,9 C
14.01.2004 10:05 4,5 C 4,8 C 58 % 1000 hPa 0,0 l/m 8,7 m/s (2 Bft) W22.5 260 0,00 min 8,27 klux -3,0 C -7,4 C
14.01.2004 10:10 4,5 C 4,8 C 58 % 1000 hPa 0,0 l/m 7,7 m/s (2 Bft) W-SW45 250 0,00 min 9,1 klux -3,0 C -6,5 C
14.01.2004 10:15 4,6 C 4,8 C 58 % 1000 hPa 0,0 l/m 7,9 m/s (2 Bft) W-SW45 250 0,00 min 11,6 klux -2,9 C -6,5 C
14.01.2004 10:20 4,6 C 4,8 C 58 % 1000 hPa 0,0 l/m 7,4 m/s (2 Bft) W-SW45 245 0,00 min 12,6 klux -2,9 C -6,0 C
14.01.2004 10:25 4,7 C 4,9 C 58 % 1000 hPa 0,0 l/m 9,2 m/s (2 Bft) W-SW67.5 245 0,00 min 12,9 klux -2,8 C -7,6 C
14.01.2004 10:30 4,7 C 5,0 C 57 % 1000 hPa 0,0 l/m 10,1 m/s (2 Bft) W-SW22.5 255 0,00 min 14,2 klux -3,1 C -8,3 C
14.01.2004 10:35 4,7 C 5,0 C 57 % 1000 hPa 0,0 l/m 8,5 m/s (2 Bft) W-SW45 255 0,00 min 11,6 klux -3,1 C -7,0 C
14.01.2004 10:40 4,8 C 5,1 C 57 % 1000 hPa 0,0 l/m 9,9 m/s (2 Bft) W-SW45 245 0,00 min 11,4 klux -3,0 C -8,0 C
14.01.2004 10:45 4,8 C 5,1 C 57 % 1000 hPa 0,0 l/m 10,1 m/s (2 Bft) W-SW45 250 0,00 min 12,4 klux -3,0 C -8,2 C
14.01.2004 10:50 4,9 C 5,1 C 57 % 1000 hPa 0,0 l/m 13,1 m/s (3 Bft) W-SW45 245 0,00 min 11,0 klux -2,9 C -9,8 C
14.01.2004 10:55 4,8 C 5,1 C 57 % 1000 hPa 0,0 l/m 9,7 m/s (2 Bft) W-SW67.5 245 0,00 min 7,08 klux -3,0 C -7,8 C
14.01.2004 11:00 4,8 C 5,1 C 58 % 1000 hPa 0,0 l/m 7,6 m/s (2 Bft) W-SW45 250 0,00 min 9,3 klux -2,7 C -6,0 C
14.01.2004 11:05 5,0 C 5,1 C 57 % 1000 hPa 0,0 l/m 7,1 m/s (2 Bft) W-SW22.5 250 0,00 min 10,8 klux -2,8 C -5,1 C
14.01.2004 11:10 5,2 C 5,2 C 56 % 1000 hPa 0,0 l/m 7,9 m/s (2 Bft) W45 260 0,00 min 16,9 klux -2,8 C -5,7 C
14.01.2004 11:15 5,3 C 5,3 C 56 % 1000 hPa 0,0 l/m 10,3 m/s (2 Bft) W-SW45 245 0,00 min 17,0 klux -2,8 C -7,5 C
14.01.2004 11:20 5,3 C 5,5 C 55 % 1000 hPa 0,0 l/m 9,8 m/s (2 Bft) W-SW45 245 0,00 min 14,6 klux -3,0 C -7,2 C
14.01.2004 11:25 5,5 C 5,6 C 55 % 1000 hPa 0,0 l/m 9,8 m/s (2 Bft) W-SW45 255 5,00 min 42,1 klux -2,8 C -6,9 C
14.01.2004 11:30 5,8 C 5,8 C 55 % 1000 hPa 0,0 l/m 9,1 m/s (2 Bft) W-SW67.5 255 5,00 min 52,5 klux -2,5 C -5,9 C
14.01.2004 11:35 6,0 C 6,1 C 54 % 1000 hPa 0,0 l/m 9,7 m/s (2 Bft) SW67.5 235 5,00 min 54,4 klux -2,6 C -6,1 C
14.01.2004 11:40 5,9 C 6,1 C 55 % 1000 hPa 0,0 l/m 9,3 m/s (2 Bft) W-SW45 255 5,00 min 44,3 klux -2,4 C -5,9 C
14.01.2004 11:45 5,7 C 6,1 C 55 % 1000 hPa 0,0 l/m 9,3 m/s (2 Bft) W-SW45 255 5,00 min 40,6 klux -2,6 C -6,2 C
14.01.2004 11:50 5,7 C 6,2 C 55 % 1000 hPa 0,0 l/m 9,4 m/s (2 Bft) W-SW45 250 5,00 min 25,1 klux -2,6 C -6,3 C
14.01.2004 11:55 5,9 C 6,3 C 55 % 1000 hPa 0,0 l/m 8,1 m/s (2 Bft) W-SW45 250 5,00 min 49,2 klux -2,4 C -4,9 C
14.01.2004 12:00 5,8 C 6,3 C 55 % 1000 hPa 0,0 l/m 10,3 m/s (2 Bft) W-SW45 250 0,00 min 15,4 klux -2,5 C -6,8 C
14.01.2004 12:05 5,9 C 6,4 C 55 % 1000 hPa 0,0 l/m 6,8 m/s (2 Bft) W-SW22.5 250 5,00 min 24,2 klux -2,4 C -3,6 C
14.01.2004 12:10 6,2 C 6,5 C 53 % 1000 hPa 0,0 l/m 9,8 m/s (2 Bft) W-SW45 250 5,00 min 54,5 klux -2,7 C -5,9 C
14.01.2004 12:15 6,3 C 6,6 C 52 % 1000 hPa 0,0 l/m 8,8 m/s (2 Bft) W-SW45 250 5,00 min 50,6 klux -2,8 C -4,9 C
14.01.2004 12:20 6,3 C 6,7 C 52 % 1000 hPa 0,0 l/m 9,7 m/s (2 Bft) W-SW67.5 245 5,00 min 52,1 klux -2,8 C -5,6 C
14.01.2004 12:25 6,6 C 6,8 C 52 % 1000 hPa 0,0 l/m 7,9 m/s (2 Bft) W-SW45 255 5,00 min 52,2 klux -2,5 C -3,7 C
14.01.2004 12:30 6,5 C 6,9 C 52 % 1000 hPa 0,0 l/m 8,4 m/s (2 Bft) W-SW22.5 255 5,00 min 48,5 klux -2,6 C -4,3 C
14.01.2004 12:35 6,5 C 7,0 C 52 % 1000 hPa 0,0 l/m 9,5 m/s (2 Bft) W-SW22.5 255 5,00 min 48,3 klux -2,6 C -5,2 C
14.01.2004 12:40 6,6 C 7,1 C 53 % 999 hPa 0,0 l/m 9,2 m/s (2 Bft) W-SW45 250 5,00 min 45,3 klux -2,3 C -4,8 C
14.01.2004 12:45 6,5 C 7,1 C 53 % 999 hPa 0,0 l/m 9,3 m/s (2 Bft) W45 260 5,00 min 45,1 klux -2,4 C -5,0 C
14.01.2004 12:50 6,5 C 7,2 C 52 % 999 hPa 0,0 l/m 9,5 m/s (2 Bft) W45 260 5,00 min 43,1 klux -2,6 C -5,2 C
14.01.2004 12:55 6,5 C 7,1 C 52 % 999 hPa 0,0 l/m 9,8 m/s (2 Bft) W-SW67.5 245 5,00 min 39,6 klux -2,6 C -5,5 C
14.01.2004 13:00 6,5 C 7,1 C 51 % 999 hPa 0,0 l/m 10,0 m/s (2 Bft) W-SW45 255 5,00 min 45,7 klux -2,9 C -5,6 C
14.01.2004 13:05 6,7 C 7,1 C 52 % 999 hPa 0,0 l/m 8,9 m/s (2 Bft) W45 260 5,00 min 47,7 klux -2,4 C -4,4 C
14.01.2004 13:10 6,7 C 7,2 C 52 % 999 hPa 0,0 l/m 7,8 m/s (2 Bft) W-SW45 255 5,00 min 44,6 klux -2,4 C -3,5 C
14.01.2004 13:15 6,5 C 7,2 C 51 % 999 hPa 0,0 l/m 10,3 m/s (2 Bft) W-SW22.5 240 5,00 min 35,1 klux -2,9 C -5,8 C
14.01.2004 13:20 6,6 C 7,2 C 51 % 999 hPa 0,0 l/m 9,9 m/s (2 Bft) W-SW45 250 5,00 min 39,1 klux -2,8 C -5,3 C
14.01.2004 13:25 6,5 C 7,1 C 51 % 999 hPa 0,0 l/m 8,7 m/s (2 Bft) W-SW67.5 255 0,00 min 22,7 klux -2,9 C -4,6 C
14.01.2004 13:30 6,3 C 7,1 C 51 % 999 hPa 0,0 l/m 6,7 m/s (2 Bft) W-SW45 245 0,00 min 11,1 klux -3,1 C -2,9 C
14.01.2004 13:35 6,2 C 6,9 C 51 % 999 hPa 0,0 l/m 9,7 m/s (2 Bft) W-SW45 255 0,00 min 12,4 klux -3,2 C -5,8 C
14.01.2004 13:40 6,2 C 6,9 C 50 % 999 hPa 0,0 l/m 10,4 m/s (2 Bft) W-SW22.5 255 0,00 min 12,5 klux -3,4 C -6,3 C
14.01.2004 13:45 6,3 C 6,9 C 51 % 999 hPa 0,0 l/m 8,1 m/s (2 Bft) W-SW45 250 0,00 min 21,3 klux -3,1 C -4,3 C
14.01.2004 13:50 6,4 C 6,9 C 51 % 999 hPa 0,0 l/m 7,7 m/s (2 Bft) W45 260 0,00 min 12,6 klux -3,0 C -3,8 C
14.01.2004 13:55 6,2 C 6,9 C 53 % 999 hPa 0,0 l/m 8,3 m/s (2 Bft) W67.5 260 0,00 min 14,4 klux -2,7 C -4,7 C
14.01.2004 14:00 6,3 C 6,9 C 53 % 999 hPa 0,0 l/m 8,2 m/s (2 Bft) W-SW45 245 0,00 min 16,5 klux -2,6 C -4,4 C
14.01.2004 14:05 6,3 C 6,9 C 53 % 998 hPa 0,0 l/m 9,7 m/s (2 Bft) W-SW45 245 0,00 min 19,7 klux -2,6 C -5,6 C
14.01.2004 14:10 6,3 C 6,9 C 54 % 998 hPa 0,0 l/m 8,4 m/s (2 Bft) W-SW67.5 250 0,00 min 17,7 klux -2,3 C -4,6 C
14.01.2004 14:15 6,2 C 6,9 C 53 % 998 hPa 0,0 l/m 7,2 m/s (2 Bft) W-SW45 245 0,00 min 16,6 klux -2,7 C -3,6 C
14.01.2004 14:20 6,3 C 6,8 C 53 % 998 hPa 0,0 l/m 9,2 m/s (2 Bft) W-SW45 250 0,00 min 12,5 klux -2,6 C -5,3 C
14.01.2004 14:25 6,2 C 6,8 C 54 % 998 hPa 0,0 l/m 7,8 m/s (2 Bft) W-SW45 255 0,00 min 10,4 klux -2,4 C -4,2 C
14.01.2004 14:30 6,2 C 6,7 C 54 % 998 hPa 0,0 l/m 8,1 m/s (2 Bft) W-SW45 245 0,00 min 9,8 klux -2,4 C -4,4 C
14.01.2004 14:35 6,2 C 6,7 C 55 % 998 hPa 0,0 l/m 7,7 m/s (2 Bft) W-SW45 255 0,00 min 8,66 klux -2,2 C -4,1 C
14.01.2004 14:40 6,1 C 6,7 C 55 % 998 hPa 0,0 l/m 9,1 m/s (2 Bft) W-SW45 250 0,00 min 8,03 klux -2,2 C -5,5 C
14.01.2004 14:45 6,1 C 6,6 C 56 % 998 hPa 0,0 l/m 7,2 m/s (2 Bft) W-SW22.5 240 0,00 min 6,72 klux -2,0 C -3,7 C
14.01.2004 14:50 5,9 C 6,5 C 58 % 998 hPa 0,0 l/m 7,5 m/s (2 Bft) W-SW45 245 0,00 min 5,43 klux -1,7 C -4,3 C
14.01.2004 14:55 5,8 C 6,4 C 58 % 998 hPa 0,0 l/m 7,3 m/s (2 Bft) W-SW45 250 0,00 min 5,19 klux -1,8 C -4,2 C
14.01.2004 15:00 5,7 C 6,3 C 59 % 998 hPa 0,0 l/m 7,6 m/s (2 Bft) W-SW45 245 0,00 min 4,71 klux -1,7 C -4,7 C
14.01.2004 15:05 5,7 C 6,2 C 59 % 998 hPa 0,0 l/m 7,8 m/s (2 Bft) SW67.5 230 0,00 min 4,13 klux -1,7 C -4,9 C
14.01.2004 15:10 5,7 C 6,2 C 59 % 998 hPa 0,0 l/m 7,0 m/s (2 Bft) SW45 235 0,00 min 4,48 klux -1,7 C -4,1 C
14.01.2004 15:15 5,7 C 6,1 C 59 % 998 hPa 0,0 l/m 9,1 m/s (2 Bft) W-SW45 250 0,00 min 4,40 klux -1,7 C -6,0 C
14.01.2004 15:20 5,7 C 6,1 C 60 % 998 hPa 0,0 l/m 7,8 m/s (2 Bft) W-SW45 240 0,00 min 4,11 klux -1,4 C -4,9 C
14.01.2004 15:25 5,6 C 6,1 C 60 % 998 hPa 0,0 l/m 7,2 m/s (2 Bft) W-SW67.5 240 0,00 min 3,99 klux -1,5 C -4,4 C
14.01.2004 15:30 5,6 C 6,0 C 60 % 998 hPa 0,0 l/m 5,1 m/s (1 Bft) W-SW67.5 245 0,00 min 3,53 klux -1,5 C -1,7 C
14.01.2004 15:35 5,5 C 6,0 C 60 % 998 hPa 0,0 l/m 7,3 m/s (2 Bft) W-SW45 250 0,00 min 3,47 klux -1,6 C -4,6 C
14.01.2004 15:40 5,4 C 5,9 C 61 % 998 hPa 0,0 l/m 8,1 m/s (2 Bft) W-SW67.5 245 0,00 min 2,83 klux -1,5 C -5,6 C
14.01.2004 15:45 5,4 C 5,9 C 62 % 998 hPa 0,0 l/m 6,0 m/s (2 Bft) W-SW22.5 240 0,00 min 3,02 klux -1,3 C -3,3 C
14.01.2004 15:50 5,3 C 5,7 C 64 % 998 hPa 0,0 l/m 7,2 m/s (2 Bft) W-SW67.5 240 0,00 min 3,56 klux -0,9 C -4,8 C
14.01.2004 15:55 5,1 C 5,7 C 66 % 998 hPa 0,0 l/m 8,2 m/s (2 Bft) W-SW45 245 0,00 min 3,12 klux -0,7 C -6,1 C
14.01.2004 16:00 5,0 C 5,6 C 67 % 998 hPa 0,0 l/m 5,0 m/s (1 Bft) SW45 235 0,00 min 1,90 klux -0,6 C -2,3 C
14.01.2004 16:05 5,0 C 5,5 C 68 % 998 hPa 0,0 l/m 5,2 m/s (1 Bft) W-SW45 250 0,00 min 1,37 klux -0,4 C -2,6 C
14.01.2004 16:10 4,9 C 5,4 C 69 % 997 hPa 0,0 l/m 3,6 m/s (1 Bft) SW22.5 225 0,00 min 825 lux -0,3 C -0,0 C
14.01.2004 16:15 4,8 C 5,3 C 71 % 997 hPa 0,0 l/m 2,4 m/s (1 Bft) SW45 230 0,00 min 671 lux -0,0 C 2,9 C
14.01.2004 16:20 4,7 C 5,3 C 71 % 997 hPa 0,0 l/m 2,6 m/s (1 Bft) S-SW45 210 0,00 min 544 lux -0,1 C 2,2 C
14.01.2004 16:25 4,7 C 5,2 C 72 % 997 hPa 0,0 l/m 3,7 m/s (1 Bft) SW45 215 0,00 min 473 lux 0,1 C -0,3 C
14.01.2004 16:30 4,7 C 5,2 C 72 % 997 hPa 0,0 l/m 3,2 m/s (1 Bft) SW45 230 0,00 min 554 lux 0,1 C 0,7 C
14.01.2004 16:35 4,7 C 5,2 C 72 % 997 hPa 0,0 l/m 4,0 m/s (1 Bft) SW45 220 0,00 min 500 lux 0,1 C -1,0 C
14.01.2004 16:40 4,7 C 5,1 C 73 % 997 hPa 0,0 l/m 2,8 m/s (1 Bft) S45 185 0,00 min 445 lux 0,3 C 1,8 C
14.01.2004 16:45 4,6 C 5,1 C 73 % 997 hPa 0,0 l/m 1,9 m/s (1 Bft) S22.5 180 0,00 min 347 lux 0,2 C 4,3 C
14.01.2004 16:50 4,6 C 5,1 C 74 % 997 hPa 0,0 l/m 0,8 m/s (0 Bft) S-SO 165 0,00 min 195 lux 0,4 C 4,6 C
14.01.2004 16:55 4,6 C 5,0 C 74 % 997 hPa 0,0 l/m 0,8 m/s (0 Bft) S-SO22.5 150 0,00 min 96 lux 0,4 C 4,6 C
14.01.2004 17:00 4,5 C 5,0 C 74 % 997 hPa 0,4 l/m 0,8 m/s (0 Bft) S45 190 0,00 min 68 lux 0,3 C 4,5 C
14.01.2004 17:05 4,5 C 5,0 C 74 % 996 hPa 0,0 l/m 3,3 m/s (1 Bft) S-SO67.5 165 0,00 min 55 lux 0,3 C 0,2 C
14.01.2004 17:10 4,5 C 5,0 C 74 % 996 hPa 0,0 l/m 3,6 m/s (1 Bft) S67.5 175 0,00 min 31 lux 0,3 C -0,5 C
14.01.2004 17:15 4,5 C 4,9 C 74 % 996 hPa 0,0 l/m 2,4 m/s (1 Bft) S67.5 185 0,00 min 17 lux 0,3 C 2,7 C
14.01.2004 17:20 4,5 C 4,9 C 74 % 996 hPa 0,0 l/m 0,5 m/s (0 Bft) S-SW45 210 0,00 min 9 lux 0,3 C 4,5 C
14.01.2004 17:25 4,4 C 4,9 C 75 % 996 hPa 0,0 l/m 1,8 m/s (1 Bft) SW22.5 220 0,00 min 4 lux 0,4 C 4,4 C
14.01.2004 17:30 4,4 C 4,8 C 76 % 996 hPa 0,4 l/m 2,4 m/s (1 Bft) SW45 215 0,00 min 0 lux 0,5 C 2,3 C
14.01.2004 17:35 4,2 C 4,8 C 77 % 996 hPa 0,0 l/m 3,6 m/s (1 Bft) SO67.5 145 0,00 min 0 lux 0,5 C -0,8 C
14.01.2004 17:40 4,1 C 4,7 C 78 % 996 hPa 0,0 l/m 5,1 m/s (1 Bft) SW45 215 0,00 min 0 lux 0,6 C -3,6 C
14.01.2004 17:45 4,1 C 4,5 C 78 % 996 hPa 0,4 l/m 4,3 m/s (1 Bft) S-SW67.5 205 0,00 min 0 lux 0,6 C -2,3 C
14.01.2004 17:50 4,0 C 4,4 C 78 % 995 hPa 0,0 l/m 1,5 m/s (1 Bft) SW45 220 0,00 min 0 lux 0,5 C 4,0 C
14.01.2004 17:55 4,0 C 4,3 C 79 % 995 hPa 0,4 l/m 2,4 m/s (1 Bft) SW22.5 225 0,00 min 0 lux 0,7 C 2,1 C
14.01.2004 18:00 4,0 C 4,3 C 79 % 995 hPa 0,0 l/m 0,2 m/s (0 Bft) S45 185 0,00 min 0 lux 0,7 C 4,0 C
14.01.2004 18:05 4,1 C 4,3 C 79 % 995 hPa 0,0 l/m 1,6 m/s (1 Bft) SO22.5 140 0,00 min 0 lux 0,8 C 4,1 C
14.01.2004 18:10 4,1 C 4,3 C 80 % 995 hPa 0,0 l/m 3,0 m/s (1 Bft) S-SO45 165 0,00 min 0 lux 1,0 C 0,5 C
14.01.2004 18:15 4,1 C 4,3 C 80 % 995 hPa 0,4 l/m 1,9 m/s (1 Bft) S67.5 185 0,00 min 0 lux 1,0 C 3,8 C
14.01.2004 18:20 4,0 C 4,2 C 80 % 995 hPa 0,0 l/m 3,4 m/s (1 Bft) SO22.5 140 0,00 min 0 lux 0,9 C -0,5 C
14.01.2004 18:25 4,0 C 4,2 C 80 % 995 hPa 0,0 l/m 3,6 m/s (1 Bft) SO22.5 135 0,00 min 0 lux 0,9 C -1,0 C
14.01.2004 18:30 4,0 C 4,1 C 80 % 994 hPa 0,4 l/m 1,8 m/s (1 Bft) S-SO45 155 0,00 min 0 lux 0,9 C 3,8 C
14.01.2004 18:35 4,0 C 4,1 C 81 % 994 hPa 0,0 l/m 0,2 m/s (0 Bft) SO45 140 0,00 min 0 lux 1,0 C 4,0 C
14.01.2004 18:40 4,0 C 4,1 C 81 % 994 hPa 0,0 l/m 2,2 m/s (1 Bft) SO67.5 145 0,00 min 0 lux 1,0 C 2,6 C
14.01.2004 18:45 4,0 C 4,0 C 81 % 994 hPa 0,0 l/m 3,5 m/s (1 Bft) SW67.5 215 0,00 min 0 lux 1,0 C -0,8 C
14.01.2004 18:50 4,0 C 4,0 C 81 % 994 hPa 0,4 l/m 1,5 m/s (1 Bft) S-SW67.5 205 0,00 min 0 lux 1,0 C 4,0 C
14.01.2004 18:55 4,0 C 4,1 C 81 % 994 hPa 0,0 l/m 3,3 m/s (1 Bft) SW67.5 215 0,00 min 0 lux 1,0 C -0,3 C
14.01.2004 19:00 3,9 C 4,1 C 83 % 994 hPa 0,4 l/m 2,6 m/s (1 Bft) S67.5 185 0,00 min 0 lux 1,3 C 1,5 C
14.01.2004 19:05 4,0 C 4,0 C 82 % 994 hPa 0,0 l/m 5,1 m/s (1 Bft) S-SW67.5 210 0,00 min 0 lux 1,2 C -3,8 C
14.01.2004 19:10 3,9 C 4,0 C 83 % 994 hPa 0,0 l/m 3,8 m/s (1 Bft) S67.5 180 0,00 min 0 lux 1,3 C -1,5 C
14.01.2004 19:15 3,9 C 4,0 C 83 % 994 hPa 0,0 l/m 4,1 m/s (1 Bft) SW67.5 215 0,00 min 0 lux 1,3 C -2,1 C
14.01.2004 19:20 4,0 C 4,0 C 82 % 994 hPa 0,4 l/m 5,3 m/s (1 Bft) W-SW45 240 0,00 min 0 lux 1,2 C -4,1 C
14.01.2004 19:25 3,9 C 3,9 C 83 % 994 hPa 0,0 l/m 5,3 m/s (1 Bft) S-SW67.5 200 0,00 min 0 lux 1,3 C -4,2 C
14.01.2004 19:30 3,8 C 3,9 C 84 % 994 hPa 0,0 l/m 6,7 m/s (2 Bft) S-SW67.5 210 0,00 min 0 lux 1,4 C -6,3 C
14.01.2004 19:35 3,8 C 3,9 C 84 % 994 hPa 0,0 l/m 6,7 m/s (2 Bft) S-SW67.5 210 0,00 min 0 lux 1,4 C -6,3 C
14.01.2004 19:40 3,8 C 3,9 C 84 % 993 hPa 0,0 l/m 4,3 m/s (1 Bft) S-SW67.5 210 0,00 min 0 lux 1,4 C -2,6 C
14.01.2004 19:45 3,8 C 3,9 C 84 % 993 hPa 0,0 l/m 3,9 m/s (1 Bft) S-SW67.5 200 0,00 min 0 lux 1,4 C -1,8 C
14.01.2004 19:50 3,8 C 3,8 C 85 % 993 hPa 0,4 l/m 4,6 m/s (1 Bft) S-SW67.5 200 0,00 min 0 lux 1,5 C -3,1 C
14.01.2004 19:55 3,8 C 3,8 C 85 % 993 hPa 0,0 l/m 3,5 m/s (1 Bft) S-SO45 160 0,00 min 0 lux 1,5 C -1,0 C
14.01.2004 20:00 3,8 C 3,8 C 85 % 993 hPa 0,0 l/m 0,5 m/s (0 Bft) S-SW45 200 0,00 min 0 lux 1,5 C 3,8 C
14.01.2004 20:05 3,8 C 3,8 C 85 % 993 hPa 0,0 l/m 4,2 m/s (1 Bft) S67.5 180 0,00 min 0 lux 1,5 C -2,5 C
14.01.2004 20:10 3,6 C 3,7 C 84 % 993 hPa 0,4 l/m 5,8 m/s (2 Bft) SW45 220 0,00 min 0 lux 1,2 C -5,4 C
14.01.2004 20:15 3,6 C 3,7 C 84 % 993 hPa 0,0 l/m 6,4 m/s (2 Bft) S-SW67.5 205 0,00 min 0 lux 1,2 C -6,2 C
14.01.2004 20:20 3,5 C 3,6 C 84 % 993 hPa 0,4 l/m 6,1 m/s (2 Bft) SW45 215 0,00 min 0 lux 1,1 C -5,9 C
14.01.2004 20:25 3,3 C 3,6 C 84 % 993 hPa 0,0 l/m 7,0 m/s (2 Bft) SW22.5 230 0,00 min 0 lux 0,9 C -7,3 C
14.01.2004 20:30 3,1 C 3,4 C 84 % 993 hPa 0,7 l/m 7,6 m/s (2 Bft) SW45 225 0,00 min 0 lux 0,7 C -8,3 C
14.01.2004 20:35 2,9 C 3,2 C 85 % 993 hPa 0,4 l/m 6,8 m/s (2 Bft) SW45 215 0,00 min 0 lux 0,6 C -7,5 C
14.01.2004 20:40 2,9 C 3,1 C 85 % 993 hPa 0,0 l/m 5,3 m/s (1 Bft) SW67.5 230 0,00 min 0 lux 0,6 C -5,4 C
14.01.2004 20:45 2,8 C 3,0 C 86 % 993 hPa 0,4 l/m 5,1 m/s (1 Bft) SW45 220 0,00 min 0 lux 0,7 C -5,4 C
14.01.2004 20:50 2,8 C 3,0 C 86 % 993 hPa 0,0 l/m 3,2 m/s (1 Bft) SW67.5 220 0,00 min 0 lux 0,7 C -1,5 C
14.01.2004 20:55 2,9 C 3,0 C 86 % 993 hPa 0,0 l/m 5,6 m/s (1 Bft) SW45 220 0,00 min 0 lux 0,8 C -6,0 C
14.01.2004 21:00 2,9 C 2,9 C 87 % 993 hPa 0,0 l/m 5,7 m/s (1 Bft) SW45 225 0,00 min 0 lux 1,0 C -6,1 C
14.01.2004 21:05 2,9 C 2,9 C 86 % 993 hPa 0,0 l/m 6,0 m/s (2 Bft) SW45 235 0,00 min 0 lux 0,8 C -6,5 C
14.01.2004 21:10 3,0 C 2,9 C 86 % 993 hPa 0,0 l/m 3,0 m/s (1 Bft) SW22.5 230 0,00 min 0 lux 0,9 C -0,7 C
14.01.2004 21:15 3,0 C 2,9 C 86 % 993 hPa 0,0 l/m 3,4 m/s (1 Bft) SW45 230 0,00 min 0 lux 0,9 C -1,7 C
14.01.2004 21:20 3,0 C 2,9 C 86 % 993 hPa 0,0 l/m 4,2 m/s (1 Bft) SW45 225 0,00 min 0 lux 0,9 C -3,5 C
14.01.2004 21:25 3,0 C 2,9 C 86 % 993 hPa 0,0 l/m 3,5 m/s (1 Bft) W-SW22.5 245 0,00 min 0 lux 0,9 C -1,9 C
14.01.2004 21:30 3,0 C 3,0 C 86 % 993 hPa 0,0 l/m 1,4 m/s (1 Bft) W22.5 265 0,00 min 0 lux 0,9 C 3,0 C
14.01.2004 21:35 3,0 C 3,0 C 86 % 993 hPa 0,0 l/m 2,2 m/s (1 Bft) W22.5 260 0,00 min 0 lux 0,9 C 1,7 C
14.01.2004 21:40 3,0 C 3,0 C 86 % 992 hPa 0,0 l/m 3,1 m/s (1 Bft) W-SW22.5 250 0,00 min 0 lux 0,9 C -0,9 C
14.01.2004 21:45 3,0 C 3,0 C 86 % 992 hPa 0,0 l/m 3,4 m/s (1 Bft) W-SW22.5 245 0,00 min 0 lux 0,9 C -1,6 C
14.01.2004 21:50 3,1 C 3,0 C 86 % 992 hPa 0,4 l/m 2,6 m/s (1 Bft) W45 270 0,00 min 0 lux 1,0 C 0,5 C
14.01.2004 21:55 3,1 C 3,1 C 86 % 992 hPa 0,0 l/m 2,9 m/s (1 Bft) W-SW22.5 255 0,00 min 0 lux 1,0 C -0,3 C
14.01.2004 22:00 3,1 C 3,1 C 86 % 992 hPa 0,0 l/m 4,0 m/s (1 Bft) W-SW45 255 0,00 min 0 lux 1,0 C -2,9 C
14.01.2004 22:05 3,2 C 3,1 C 85 % 992 hPa 0,0 l/m 4,9 m/s (1 Bft) W-SW22.5 250 0,00 min 0 lux 0,9 C -4,4 C
14.01.2004 22:10 3,2 C 3,1 C 85 % 992 hPa 0,0 l/m 4,9 m/s (1 Bft) W-SW22.5 250 0,00 min 0 lux 0,9 C -4,4 C
14.01.2004 22:15 3,3 C 3,1 C 84 % 992 hPa 0,0 l/m 4,8 m/s (1 Bft) W-SW22.5 245 0,00 min 0 lux 0,9 C -4,1 C
14.01.2004 22:20 3,3 C 3,2 C 84 % 993 hPa 0,0 l/m 4,6 m/s (1 Bft) W-SW22.5 250 0,00 min 0 lux 0,9 C -3,7 C
14.01.2004 22:25 3,3 C 3,2 C 83 % 993 hPa 0,0 l/m 6,0 m/s (2 Bft) W-SW45 250 0,00 min 0 lux 0,7 C -6,0 C
14.01.2004 22:30 3,2 C 3,2 C 83 % 993 hPa 0,0 l/m 5,3 m/s (1 Bft) W-SW22.5 250 0,00 min 0 lux 0,6 C -5,1 C
14.01.2004 22:35 3,2 C 3,2 C 83 % 993 hPa 0,0 l/m 6,5 m/s (2 Bft) W-SW22.5 250 0,00 min 0 lux 0,6 C -6,8 C
14.01.2004 22:40 3,1 C 3,2 C 84 % 993 hPa 0,0 l/m 6,2 m/s (2 Bft) W-SW45 250 0,00 min 0 lux 0,7 C -6,5 C
14.01.2004 22:45 3,0 C 3,2 C 84 % 993 hPa 0,0 l/m 4,0 m/s (1 Bft) W22.5 260 0,00 min 0 lux 0,6 C -3,1 C
14.01.2004 22:50 3,0 C 3,1 C 84 % 993 hPa 0,0 l/m 4,1 m/s (1 Bft) W-SW22.5 250 0,00 min 0 lux 0,6 C -3,2 C
14.01.2004 22:55 3,0 C 3,1 C 85 % 993 hPa 0,0 l/m 4,3 m/s (1 Bft) W-SW22.5 250 0,00 min 0 lux 0,7 C -3,6 C
14.01.2004 23:00 2,9 C 3,1 C 85 % 993 hPa 0,0 l/m 3,9 m/s (1 Bft) W-SW22.5 250 0,00 min 0 lux 0,6 C -2,9 C
14.01.2004 23:05 2,8 C 3,0 C 86 % 993 hPa 0,0 l/m 2,8 m/s (1 Bft) W-SW22.5 245 0,00 min 0 lux 0,7 C -0,4 C
14.01.2004 23:10 2,7 C 2,9 C 86 % 993 hPa 0,0 l/m 3,9 m/s (1 Bft) W-SW22.5 250 0,00 min 0 lux 0,6 C -3,2 C
14.01.2004 23:15 2,7 C 2,9 C 86 % 993 hPa 0,0 l/m 3,4 m/s (1 Bft) W-SW22.5 245 0,00 min 0 lux 0,6 C -2,0 C
14.01.2004 23:20 2,7 C 2,8 C 86 % 993 hPa 0,0 l/m 4,3 m/s (1 Bft) W22.5 260 0,00 min 0 lux 0,6 C -3,9 C
14.01.2004 23:25 2,8 C 2,8 C 85 % 993 hPa 0,0 l/m 5,2 m/s (1 Bft) W-SW22.5 255 0,00 min 0 lux 0,5 C -5,5 C
14.01.2004 23:30 2,8 C 2,8 C 85 % 993 hPa 0,0 l/m 5,2 m/s (1 Bft) W-SW22.5 255 0,00 min 0 lux 0,5 C -5,5 C
14.01.2004 23:35 2,8 C 2,8 C 85 % 993 hPa 0,0 l/m 4,6 m/s (1 Bft) W-SW22.5 250 0,00 min 0 lux 0,5 C -4,4 C
14.01.2004 23:40 2,7 C 2,8 C 85 % 993 hPa 0,0 l/m 5,7 m/s (1 Bft) W-SW22.5 250 0,00 min 0 lux 0,4 C -6,4 C
14.01.2004 23:45 2,7 C 2,8 C 85 % 993 hPa 0,0 l/m 4,5 m/s (1 Bft) W-SW22.5 240 0,00 min 0 lux 0,4 C -4,3 C
14.01.2004 23:50 2,8 C 2,8 C 85 % 993 hPa 0,0 l/m 2,7 m/s (1 Bft) W-SW22.5 245 0,00 min 0 lux 0,5 C -0,2 C
14.01.2004 23:55 2,8 C 2,8 C 85 % 993 hPa 0,0 l/m 3,0 m/s (1 Bft) W-SW22.5 250 0,00 min 0 lux 0,5 C -0,9 C
_ Min-Zeit 23:10 23:20 13:40 00:00 - 18:00 - - - - 13:40 07:20
Minimum _ 2,7 C 2,8 C 50 % 991 hPa - 0,2 m/s (0 Bft) - - - - -3,4 C -10,7 C
_ Max-Zeit 13:05 12:50 21:00 09:40 20:30 05:55 - - 09:15 12:10 19:50 16:50
Maximum _ 6,7 C 7,2 C 87 % 1000 hPa 0,7 l/m 16,1 m/s
W-SW (7 Bft)
- - 5,00 min 54,5 klux 1,5 C 4,6 C
Durchschnitt _ 4,7 C 4,9 C 67 % 996 hPa #6,5 l/m 7,6 m/s (4 Bft) W-SW - #2:05 h 5,64 klux -1,0 C -5,1 C